Location: Newark
(35.9250°N, 105.0090°W)
Time: 03:52:27
(UTC+00:00)

Envisat - Visible Passes

Search period start: 19 September 2020 00:00
Search period end: 29 September 2020 00:00
Orbit: 764 x 766 km, 98.1° (Epoch: 18 September)

Date Brightness Start Highest point End Pass type
(mag) Time Alt. Az. Time Alt. Az. Time Alt. Az.
19 Sep 6.5 01:47:48 10° WSW 01:49:34 12° W 01:51:21 10° WNW visible
19 Sep 5.4 12:17:21 10° NE 12:21:43 28° E 12:26:03 10° SSE visible
20 Sep 6.4 11:42:48 10° ENE 11:44:37 12° E 11:46:25 10° ESE visible
22 Sep 6.2 01:35:08 10° SW 01:38:06 16° W 01:41:05 10° NW visible
22 Sep 5.9 12:06:22 10° NE 12:10:17 22° E 12:14:11 10° SE visible
25 Sep 6.0 01:22:58 10° SW 01:26:39 20° W 01:30:22 10° NW visible
25 Sep 6.1 11:55:33 10° NE 11:58:50 17° E 12:02:07 10° SE visible
27 Sep 6.7 01:51:25 10° W 01:52:20 10° W 01:53:15 10° W visible
27 Sep 5.2 12:19:57 10° NE 12:24:27 31° E 12:28:56 10° SSE visible
28 Sep 5.6 01:11:01 10° SSW 01:15:13 26° W 01:19:26 10° NW visible
28 Sep 6.3 11:45:02 10° ENE 11:47:22 13° E 11:49:42 10° ESE visible
